Weather History for KPKD - January, 2012

Change the Weather History Date:

Friday, January 13, 2012

  Actual Average Record
Temperature  
Mean Temperature 2 °F -  
Max Temperature 8 °F 18 °F 44 °F (1987)
Min Temperature -4 °F -4 °F -35 °F (2009)
Degree Days  
Heating Degree Days 63    
Moisture  
Dew Point -4 °F    
Average Humidity 79    
Maximum Humidity 88    
Minimum Humidity 67    
Precipitation  
Precipitation 0.00 in - - ()
Sea Level Pressure  
Sea Level Pressure 30.01 in    
Wind  
Wind Speed 6 mph (NW)    
Max Wind Speed 10 mph    
Max Gust Speed -    
Visibility 10 miles    
Events Snow    
Averages and records for this station are not official NWS values.
T = Trace of Precipitation, MM = Missing Value Source: NWS Daily Summary

Daily Weather History Graph

Daily Weather History Graph

Search for Another Location

Airport or City:

Trip Planner

Search our weather history database for the weather conditions in past years. The results will help you decide how hot, cold, wet, or windy it might be!

Date:

Astronomy

Jan. 13, 2012 Rise Set
Actual Time 8:02 AM CST 4:55 PM CST
Civil Twilight 7:28 AM CST 5:29 PM CST
Nautical Twilight 6:50 AM CST 6:07 PM CST
Astronomical Twilight 6:13 AM CST 6:44 PM CST
Moon 10:33 PM CST (1/13) 9:56 AM CST (1/13)
Length of Visible Light 10h 01m
Length of Day
8h 52m
Waning Gibbous, 78% of the Moon is Illuminated
Jan 13
Waning Gibbous
Jan 16
Last Quarter
Jan 23
New
Jan 30
First Quarter
Feb 7
Full

Hourly Weather History & Observations

Time (CST) Temp. Windchill Dew Point Humidity Pressure Visibility Wind Dir Wind Speed Gust Speed Precip Events Conditions
12:53 AM -2.9 °F -16.5 °F -7.1 °F 82% 30.03 in 10.0 mi NW 6.9 mph - N/A   Overcast
1:53 AM -4.0 °F -19.0 °F -8.0 °F 83% 30.04 in 10.0 mi NW 8.1 mph - N/A   Overcast
2:53 AM -0.9 °F -16.4 °F -6.0 °F 79% 30.04 in 10.0 mi NW 9.2 mph - N/A   Overcast
3:53 AM -0.9 °F -17.4 °F -6.0 °F 79% 30.04 in 10.0 mi NNW 10.4 mph - N/A   Overcast
4:53 AM -2.0 °F -17.7 °F -6.0 °F 83% 30.04 in 10.0 mi NNW 9.2 mph - N/A   Overcast
5:53 AM -2.0 °F -16.6 °F -6.0 °F 83% 30.05 in 10.0 mi NW 8.1 mph - N/A   Overcast
6:53 AM -2.9 °F -13.3 °F -7.1 °F 82% 30.06 in 10.0 mi NNW 4.6 mph - N/A   Overcast
7:53 AM -4.0 °F -16.3 °F -7.6 °F 85% 29.93 in 10.0 mi NNW 5.8 mph - N/A   Overcast
8:53 AM -2.9 °F -11.2 °F -8.0 °F 79% 30.06 in 10.0 mi NW 3.5 mph - N/A   Overcast
9:07 AM -2.2 °F -10.4 °F -7.6 °F 78% 29.94 in 10.0 mi NW 3.5 mph - N/A   Overcast
9:53 AM -2.0 °F -10.1 °F -6.0 °F 83% 30.06 in 6.0 mi NNE 3.5 mph - 0.00 in Snow Light Snow
10:53 AM -0.0 °F - -2.9 °F 88% 30.06 in 10.0 mi Calm Calm - 0.00 in   Overcast
11:53 AM 1.0 °F -6.7 °F -2.0 °F 87% 30.05 in 8.0 mi WSW 3.5 mph - 0.00 in   Overcast
12:48 PM 1.4 °F -6.2 °F -2.2 °F 85% 29.90 in 10.0 mi North 3.5 mph - N/A   Overcast
12:53 PM 3.0 °F -4.4 °F -2.9 °F 76% 30.03 in 10.0 mi NE 3.5 mph - N/A   Overcast
1:11 PM 3.2 °F - -2.2 °F 78% 29.89 in 10.0 mi Calm Calm - N/A   Scattered Clouds
1:53 PM 5.0 °F - -0.9 °F 76% 30.01 in 10.0 mi Calm Calm - N/A   Clear
2:53 PM 7.0 °F - -2.0 °F 67% 30.00 in 10.0 mi Calm Calm - N/A   Clear
3:53 PM 8.1 °F - -0.9 °F 67% 30.00 in 10.0 mi Calm Calm - N/A   Clear
4:53 PM 6.1 °F -0.9 °F -2.0 °F 69% 30.00 in 10.0 mi ESE 3.5 mph - N/A   Clear
5:53 PM 5.0 °F -5.6 °F -2.0 °F 73% 30.00 in 10.0 mi SE 5.8 mph - N/A   Mostly Cloudy
6:53 PM 6.1 °F -2.8 °F -0.9 °F 73% 30.01 in 10.0 mi South 4.6 mph - N/A   Overcast
7:53 PM 6.1 °F -4.3 °F -0.9 °F 73% 30.02 in 10.0 mi South 5.8 mph - N/A   Overcast
8:53 PM 5.0 °F -2.1 °F -0.4 °F 78% 29.90 in 10.0 mi South 3.5 mph - N/A   Mostly Cloudy
9:53 PM 3.9 °F -6.9 °F -2.0 °F 76% 30.01 in 10.0 mi South 5.8 mph - N/A   Mostly Cloudy
10:53 PM 3.9 °F -5.3 °F -0.9 °F 80% 30.01 in 10.0 mi SE 4.6 mph - N/A   Overcast
11:53 PM 3.9 °F -5.3 °F -0.9 °F 80% 30.01 in 10.0 mi SE 4.6 mph - N/A   Overcast